Regional Weather Roundup
Issued by NWS

Home | Current Version | Previous Version | Graphics & Text | Print | Product List | Glossary On
Versions: 1 2 3 4 5 6 7 8 9 10 11 12 13 14 15 16 17 18 19 20 21 22 23 24 25 26 27 28 29 30 31 32 33 34 35 36 37 38 39 40 41 42 43 44 45 46 47 48 49 50
000
ASUS43 KMKX 232220
RWRWI

WISCONSIN REGIONAL WEATHER ROUNDUP
NATIONAL WEATHER SERVICE MILWAUKEE/SULLIVAN WI
500 PM CDT WED JUL 23 2014

NOTE: "FAIR" INDICATES FEW OR NO CLOUDS BELOW 12,000 FEET WITH NO
SIGNIFICANT WEATHER AND/OR OBSTRUCTIONS TO VISIBILITY.

WIZ001-002-006>008-014>016-023>028-232300-
NORTHWEST WISCONSIN

CITY           SKY/WX    TMP DP  RH WIND       PRES   REMARKS
SUPERIOR ARPT  MOSUNNY   72  58  61 NE5       30.20F
ASHLAND        SUNNY     74  54  49 MISG      30.22F
HAYWARD        MOSUNNY   76  51  41 NE9       30.21F
SIREN          SUNNY     78  49  36 NW5       30.20F
RICE LAKE      SUNNY     75  51  42 NW6       30.21F
LADYSMITH      MOSUNNY   76  54  45 N6        30.21F
EAU CLAIRE     MOSUNNY   81  51  35 N8        30.17F HX  80
MENOMONIE      PTCLDY    79  52  37 N8        30.18F
NEW RICHMOND   MOSUNNY   78  53  41 W7        30.20F
OSCEOLA        MOSUNNY   78  53  42 NW5       30.22F
$$

WIZ003>005-009-010-017-018-232300-
NORTH CENTRAL WISCONSIN

CITY           SKY/WX    TMP DP  RH WIND       PRES   REMARKS
WOODRUFF       MOSUNNY   72  53  50 NW6       30.22S
RHINELANDER    PTSUNNY   72  52  49 VRB5      30.21F
EAGLE RIVER    PTSUNNY   72  49  43 NE5       30.21S
LAND O LAKES   MOSUNNY   71  51  48 N7        30.22F
PHILLIPS       PTSUNNY   71  54  54 N7        30.21S
TOMAHAWK       MOSUNNY   72  53  49 CALM      30.20F
MEDFORD        MOSUNNY   73  55  52 N6        30.20F
MERRILL        SUNNY     73  54  49 NW6       30.19F
$$

WIZ029-030-035-036-043>047-232300-
CENTRAL WISCONSIN

CITY           SKY/WX    TMP DP  RH WIND       PRES   REMARKS
WAUSAU         PTSUNNY   74  51  44 N7        30.17F
MOSINEE        PTSUNNY   73  54  49 CALM      30.19F
MARSHFIELD     MOSUNNY   77  55  46 N12       30.18F
STEVENS POINT  PTSUNNY   75  51  42 N12       30.18F
WAUPACA        SUNNY     78  48  34 N8        30.17F
WAUTOMA        MOSUNNY   78  52  40 N7        30.17F
WISC RAPIDS    MOSUNNY   78  53  41 N7        30.18F
CAMP DOUGLAS   PTSUNNY   79  59  50 NW6       30.16F HX  80
$$

WIZ011>013-019>022-031-037>040-048>050-232300-
NORTHEAST WISCONSIN

CITY           SKY/WX    TMP DP  RH WIND       PRES   REMARKS
ANTIGO         MOSUNNY   68  50  51 N8        30.20S
STURGEON BAY   MOSUNNY   72  46  40 N13       30.18S
GREEN BAY      PTSUNNY   73  51  46 NE8       30.17F
MANITOWOC      PTSUNNY   65  51  60 NE8       30.19S
APPLETON       MOSUNNY   73  48  40 N12       30.18F
CLINTONVILLE   MOSUNNY   75  45  33 NE9       30.17F
OSHKOSH        PTSUNNY   75  55  49 E10       30.16F
$$

WIZ032>034-041-042-053>061-232300-
SOUTHWEST WISCONSIN

CITY           SKY/WX    TMP DP  RH WIND       PRES   REMARKS
LA CROSSE      MOSUNNY   81  55  40 NW10      30.16F HX  81
SPARTA         PTSUNNY   77  53  42 N6        30.17F
VIROQUA        FAIR      77  56  48 NW8       30.19F
BOSCOBEL       SUNNY     82  55  39 VRB6      30.16F HX  81
PRAIRIE DU CHI SUNNY     79  49  35 NW6       30.16F
PLATTEVILLE    FAIR      78  56  46 N13       30.17F
$$

WIZ056-057-062-063-064-067-068-232300-
SOUTH CENTRAL WISCONSIN

CITY           SKY/WX    TMP DP  RH WIND       PRES   REMARKS
BARABOO/DELLS  MOSUNNY   78  49  36 NW7       30.16F
LONE ROCK      SUNNY     82  56  40 NW7       30.15F HX  82
WATERTOWN      MOSUNNY   74  54  48 NE12      30.15F
MADISON        PTSUNNY   78  55  44 N9        30.15F
MIDDLETON      FAIR      79  51  37 NW3       30.16F
MONROE         PTSUNNY   73  54  49 N9        30.15F
JANESVILLE     MOSUNNY   77  50  38 N12       30.15S
$$

WIZ051-052-058>065-066-070>072-232300-
SOUTHEAST WISCONSIN

CITY           SKY/WX    TMP DP  RH WIND       PRES   REMARKS
MILWAUKEE      MOSUNNY   64  53  67 NE12G21   30.18S
WAUKESHA       MOSUNNY   66  54  63 NE15      30.18S
MILWAUKEE/TIMM SUNNY     66  48  52 NE16G23   30.19S
RACINE         SUNNY     65  54  67 N16G23    30.18S
BURLINGTON     MOSUNNY   69  56  62 E10       30.15S
KENOSHA        SUNNY     67  55  65 NE15G23   30.16S
FOND DU LAC    MOSUNNY   75  52  44 NE13      30.17F
SHEBOYGAN      MOSUNNY   67  51  56 NE15      30.18F
WEST BEND      PTSUNNY   64  52  63 NE10      30.18S
JUNEAU         SUNNY     74  46  37 N12       30.16F
$$

LSZ147-162-232300-
LAKE SUPERIOR

STATION/POSITION TIME  TEMP    WIND        PRES    WAVE
                       AIR SEA DIR/SP/G            HT/PER
                 (UTC) (F)     (DEG/KT/KT) (MB)    (FT/S)
$$

LMZ867-665-643>646-232300-
LAKE MICHIGAN

STATION/POSITION TIME  TEMP    WIND        PRES    WAVE
                       AIR SEA DIR/SP/G            HT/PER
                 (UTC) (F)     (DEG/KT/KT) (MB)    (FT/S)
$$

TC  - TEMPERATURE IN CELSIUS
VSB - VISIBILITY IN STATUTE MILES
WCI - WIND CHILL INDEX
HX  - HEAT INDEX



USA.gov is the U.S. government's official web portal to all federal, state and local government web resources and services.